South St. Paul, MN

6:05 AM CDT on July 28, 2017 (GMT -0500)
South Saint Paul Municipal-Fleming

Weather History for KSGS - July, 2013

Change the Weather History Date:

Monday, July 22, 2013

  Actual Average (KSTP) Record (KSTP)
Temperature  
Mean Temperature 78 °F -  
Max Temperature 88 °F 80 °F 96 °F (2016)
Min Temperature 67 °F 62 °F 54 °F (2000)
Cooling Degree Days 12    
Growing Degree Days 28 (Base 50)    
Moisture  
Dew Point 63 °F    
Average Humidity 65    
Maximum Humidity 87    
Minimum Humidity 37    
Precipitation  
Precipitation 0.00 in - - ()
Sea Level Pressure  
Sea Level Pressure 29.74 in    
Wind  
Wind Speed 8 mph (SW)    
Max Wind Speed 18 mph    
Max Gust Speed 25 mph    
Visibility 10 miles    
Events      
Averages and records for this station are not official NWS values.
T = Trace of Precipitation, MM = Missing Value Source: NWS Daily Summary

Daily Weather History Graph

Daily Weather History Graph

Search for Another Location

Airport or City:

Trip Planner

Search our weather history database for the weather conditions in past years. The results will help you decide how hot, cold, wet, or windy it might be!

Date:

Astronomy

Jul. 22, 2013 Rise Set
Actual Time 5:47 AM CDT 8:49 PM CDT
Civil Twilight 5:12 AM CDT 9:24 PM CDT
Nautical Twilight 4:27 AM CDT 10:08 PM CDT
Astronomical Twilight 3:33 AM CDT 11:01 PM CDT
Moon 8:31 PM CDT (7/22) 5:47 AM CDT (7/22)
Length of Visible Light 16h 11m
Length of Day
15h 01m
Full, 100% of the Moon is Illuminated
Jul 22
Full
Jul 22
Full
Jul 29
Last Quarter
Aug 6
New
Aug 14
First Quarter

Hourly Weather History & Observations

Time (CDT) Temp. Heat Index Dew Point Humidity Pressure Visibility Wind Dir Wind Speed Gust Speed Precip Events Conditions
12:13 AM 71.8 °F - 65.3 °F 80% 29.82 in 10.0 mi SSE 10.4 mph - N/A   Clear
12:33 AM 71.6 °F - 65.3 °F 80% 29.82 in 10.0 mi SSE 8.1 mph - N/A   Clear
12:53 AM 71.2 °F - 65.3 °F 81% 29.82 in 10.0 mi SSE 8.1 mph - N/A   Clear
1:13 AM 70.9 °F - 65.1 °F 82% 29.81 in 10.0 mi SSE 9.2 mph - N/A   Clear
1:33 AM 70.3 °F - 64.9 °F 83% 29.81 in 10.0 mi SSE 5.8 mph - N/A   Clear
1:53 AM 70.0 °F - 64.6 °F 83% 29.80 in 10.0 mi SSE 6.9 mph - N/A   Clear
2:13 AM 69.8 °F - 64.4 °F 83% 29.78 in 10.0 mi SSE 6.9 mph - N/A   Clear
2:33 AM 69.4 °F - 64.4 °F 84% 29.79 in 10.0 mi SSE 5.8 mph - N/A   Clear
2:53 AM 69.3 °F - 63.7 °F 82% 29.78 in 10.0 mi SSE 6.9 mph - N/A   Clear
3:13 AM 69.1 °F - 63.5 °F 82% 29.78 in 10.0 mi SSE 4.6 mph - N/A   Clear
3:33 AM 68.9 °F - 63.0 °F 81% 29.77 in 10.0 mi SSE 6.9 mph - N/A   Clear
3:53 AM 68.5 °F - 63.0 °F 82% 29.77 in 10.0 mi SSE 3.5 mph - N/A   Clear
4:13 AM 68.4 °F - 63.1 °F 83% 29.75 in 10.0 mi South 6.9 mph - N/A   Clear
4:33 AM 68.4 °F - 63.1 °F 83% 29.76 in 10.0 mi Calm Calm - N/A   Clear
4:53 AM 68.2 °F - 63.1 °F 84% 29.77 in 10.0 mi Calm Calm - N/A   Clear
5:13 AM 68.0 °F - 63.5 °F 85% 29.78 in 10.0 mi South 4.6 mph - N/A   Clear
5:33 AM 68.2 °F - 63.5 °F 85% 29.77 in 10.0 mi SSE 3.5 mph - N/A   Clear
5:53 AM 68.0 °F - 63.5 °F 85% 29.77 in 10.0 mi Calm Calm - N/A   Clear
6:13 AM 67.6 °F - 63.5 °F 87% 29.76 in 10.0 mi South 3.5 mph - N/A   Clear
6:33 AM 68.0 °F - 63.9 °F 87% 29.76 in 10.0 mi SE 3.5 mph - N/A   Clear
6:53 AM 68.4 °F - 63.9 °F 85% 29.77 in 10.0 mi South 5.8 mph - N/A   Scattered Clouds
7:13 AM 68.9 °F - 64.2 °F 85% 29.75 in 10.0 mi Calm Calm - N/A   Scattered Clouds
7:33 AM 69.1 °F - 64.4 °F 85% 29.75 in 10.0 mi SSE 3.5 mph - N/A   Clear
7:53 AM 70.0 °F - 64.4 °F 82% 29.74 in 10.0 mi South 6.9 mph - N/A   Scattered Clouds
8:13 AM 70.3 °F - 64.8 °F 82% 29.74 in 10.0 mi SE 5.8 mph 16.1 mph N/A   Scattered Clouds
8:33 AM 71.1 °F - 65.3 °F 82% 29.73 in 10.0 mi SSE 6.9 mph - N/A   Scattered Clouds
8:53 AM 72.3 °F - 66.2 °F 81% 29.72 in 10.0 mi South 8.1 mph - N/A   Clear
9:13 AM 73.0 °F - 66.9 °F 81% 29.71 in 10.0 mi SSE 10.4 mph - N/A   Clear
9:33 AM 74.3 °F - 67.8 °F 80% 29.71 in 10.0 mi South 6.9 mph - N/A   Clear
9:53 AM 75.4 °F - 68.2 °F 78% 29.71 in 10.0 mi South 8.1 mph - N/A   Clear
10:13 AM 77.9 °F - 69.6 °F 76% 29.70 in 10.0 mi South 9.2 mph 17.3 mph N/A   Clear
10:33 AM 79.2 °F - 69.6 °F 72% 29.70 in 10.0 mi South 11.5 mph - N/A   Clear
10:53 AM 80.8 °F 84.2 °F 70.3 °F 70% 29.69 in 10.0 mi SSW 8.1 mph 18.4 mph N/A   Clear
11:13 AM 82.2 °F 86.4 °F 70.7 °F 68% 29.69 in 10.0 mi SSW 10.4 mph 16.1 mph N/A   Scattered Clouds
11:33 AM 82.6 °F 87.1 °F 70.9 °F 68% 29.69 in 10.0 mi SW 11.5 mph - N/A   Scattered Clouds
11:53 AM 84.2 °F 89.6 °F 71.6 °F 66% 29.69 in 10.0 mi SSW 6.9 mph - N/A   Scattered Clouds
12:13 PM 85.3 °F 90.8 °F 71.2 °F 63% 29.68 in 10.0 mi SW 9.2 mph - N/A   Clear
12:33 PM 86.0 °F 89.7 °F 68.9 °F 56% 29.68 in 10.0 mi WSW 10.4 mph - N/A   Scattered Clouds
12:53 PM 86.2 °F 89.1 °F 67.3 °F 53% 29.68 in 10.0 mi WSW 11.5 mph 17.3 mph N/A   Scattered Clouds
1:13 PM 86.0 °F 88.8 °F 67.1 °F 53% 29.69 in 10.0 mi West 11.5 mph 17.3 mph N/A   Scattered Clouds
1:33 PM 85.5 °F 88.2 °F 67.3 °F 54% 29.69 in 10.0 mi WNW 15.0 mph - N/A   Scattered Clouds
1:53 PM 84.7 °F 87.6 °F 67.6 °F 56% 29.69 in 10.0 mi West 10.4 mph - N/A   Mostly Cloudy
2:13 PM 84.7 °F 87.6 °F 67.5 °F 56% 29.69 in 10.0 mi West 8.1 mph - N/A   Mostly Cloudy
2:33 PM 85.8 °F 88.8 °F 67.6 °F 54% 29.69 in 10.0 mi West 9.2 mph - N/A   Scattered Clouds
2:53 PM 86.0 °F 89.7 °F 68.5 °F 56% 29.69 in 10.0 mi West 6.9 mph - N/A   Clear
3:13 PM 86.5 °F 90.0 °F 68.2 °F 54% 29.69 in 10.0 mi WSW 8.1 mph - N/A   Clear
3:33 PM 88.3 °F 92.4 °F 68.5 °F 52% 29.68 in 10.0 mi West 10.4 mph - N/A   Scattered Clouds
3:53 PM 86.9 °F 89.3 °F 66.4 °F 50% 29.68 in 10.0 mi West 11.5 mph 17.3 mph N/A   Scattered Clouds
4:13 PM 88.3 °F 91.6 °F 67.5 °F 50% 29.67 in 10.0 mi WNW 9.2 mph - N/A   Clear
4:33 PM 88.0 °F 88.7 °F 63.1 °F 43% 29.67 in 10.0 mi NW 15.0 mph 23.0 mph N/A   Scattered Clouds
4:53 PM 88.5 °F 87.8 °F 59.4 °F 37% 29.67 in 10.0 mi WNW 17.3 mph - N/A   Clear
5:13 PM 87.8 °F 87.1 °F 59.4 °F 38% 29.68 in 10.0 mi WNW 13.8 mph 18.4 mph N/A   Clear
5:33 PM 87.3 °F 87.0 °F 59.9 °F 40% 29.69 in 10.0 mi WNW 13.8 mph - N/A   Clear
5:53 PM 85.8 °F 85.9 °F 60.6 °F 43% 29.69 in 10.0 mi NW 13.8 mph 18.4 mph N/A   Clear
6:13 PM 85.6 °F 85.4 °F 60.1 °F 42% 29.69 in 10.0 mi NW 12.7 mph 20.7 mph N/A   Scattered Clouds
6:33 PM 84.9 °F 84.6 °F 59.2 °F 42% 29.70 in 10.0 mi NNW 12.7 mph 23.0 mph N/A   Scattered Clouds
6:53 PM 83.5 °F 83.4 °F 59.2 °F 44% 29.71 in 10.0 mi NNW 18.4 mph 25.3 mph N/A   Scattered Clouds
7:13 PM 82.8 °F 82.4 °F 57.6 °F 42% 29.73 in 10.0 mi NNW 16.1 mph 21.9 mph N/A   Clear
7:33 PM 81.9 °F 81.7 °F 57.0 °F 43% 29.74 in 10.0 mi NW 12.7 mph 17.3 mph N/A   Clear
7:53 PM 81.0 °F 81.1 °F 57.7 °F 45% 29.75 in 10.0 mi North 11.5 mph 19.6 mph N/A   Clear
8:13 PM 79.7 °F - 57.4 °F 46% 29.75 in 10.0 mi NNW 13.8 mph 17.3 mph N/A   Clear
8:33 PM 79.2 °F - 57.6 °F 47% 29.76 in 10.0 mi NNW 15.0 mph 21.9 mph N/A   Clear
8:53 PM 77.9 °F - 57.9 °F 50% 29.77 in 10.0 mi North 12.7 mph 18.4 mph N/A   Clear
9:13 PM 76.3 °F - 57.4 °F 52% 29.78 in 10.0 mi North 10.4 mph 19.6 mph N/A   Clear
9:33 PM 75.2 °F - 57.0 °F 53% 29.79 in 10.0 mi North 11.5 mph 16.1 mph N/A   Clear
9:53 PM 74.7 °F - 55.2 °F 51% 29.80 in 10.0 mi North 10.4 mph 21.9 mph N/A   Clear
10:13 PM 73.8 °F - 55.4 °F 53% 29.81 in 10.0 mi North 10.4 mph 16.1 mph N/A   Clear
10:33 PM 73.0 °F - 55.8 °F 55% 29.81 in 10.0 mi North 10.4 mph 16.1 mph N/A   Clear
10:53 PM 72.5 °F - 55.9 °F 56% 29.81 in 10.0 mi North 8.1 mph - N/A   Clear
11:13 PM 72.0 °F - 55.6 °F 56% 29.83 in 10.0 mi North 8.1 mph - N/A   Clear
11:33 PM 72.1 °F - 55.0 °F 55% 29.84 in 10.0 mi North 9.2 mph - N/A   Mostly Cloudy
11:53 PM 71.1 °F - 55.4 °F 58% 29.85 in 10.0 mi North 8.1 mph - N/A   Scattered Clouds